<?xml version="1.0" encoding="utf-8"?>
<gpx xmlns:xsi="http://www.w3.org/2001/XMLSchema-instance" xmlns:xsd="http://www.w3.org/2001/XMLSchema" version="1.1" creator="Shapelink.com" xmlns="http://www.topografix.com/GPX/1/1" xmlns:gpxtpx="http://www.garmin.com/xmlschemas/TrackPointExtension/v1">
  <metadata>
    <name>Gehen 1.81 km, 2026-05-08</name>
    <desc></desc>
    <author><name>Elina Lövgren</name></author> 
    <time>1970-01-01T01:00:00Z</time>
  </metadata>
  <trk>
    <name>Gehen 1.81 km, 2026-05-08</name>
    <trkseg>
      <trkpt lat="64.176795" lon="19.713026">
        <ele>173.143</ele>
        <time>1970-01-01T01:00:00Z</time>
      </trkpt>
      <trkpt lat="64.176739" lon="19.712841">
        <ele>173.25</ele>
        <time>1970-01-01T01:00:00Z</time>
      </trkpt>
      <trkpt lat="64.17668" lon="19.712654">
        <ele>173.444</ele>
        <time>1970-01-01T01:00:00Z</time>
      </trkpt>
      <trkpt lat="64.17663" lon="19.712461">
        <ele>173.6</ele>
        <time>1970-01-01T01:00:00Z</time>
      </trkpt>
      <trkpt lat="64.176575" lon="19.712282">
        <ele>173.727</ele>
        <time>1970-01-01T01:00:00Z</time>
      </trkpt>
      <trkpt lat="64.17652" lon="19.712112">
        <ele>174</ele>
        <time>1970-01-01T01:00:00Z</time>
      </trkpt>
      <trkpt lat="64.176475" lon="19.711891">
        <ele>174.182</ele>
        <time>1970-01-01T01:00:00Z</time>
      </trkpt>
      <trkpt lat="64.17639" lon="19.711744">
        <ele>174.364</ele>
        <time>1970-01-01T01:00:00Z</time>
      </trkpt>
      <trkpt lat="64.176329" lon="19.711554">
        <ele>174.545</ele>
        <time>1970-01-01T01:00:00Z</time>
      </trkpt>
      <trkpt lat="64.176254" lon="19.711435">
        <ele>174.636</ele>
        <time>1970-01-01T01:00:00Z</time>
      </trkpt>
      <trkpt lat="64.176216" lon="19.711226">
        <ele>174.727</ele>
        <time>1970-01-01T01:00:00Z</time>
      </trkpt>
      <trkpt lat="64.176186" lon="19.71102">
        <ele>174.818</ele>
        <time>1970-01-01T01:00:00Z</time>
      </trkpt>
      <trkpt lat="64.17615" lon="19.710794">
        <ele>174.909</ele>
        <time>1970-01-01T01:00:00Z</time>
      </trkpt>
      <trkpt lat="64.176069" lon="19.710688">
        <ele>174.909</ele>
        <time>1970-01-01T01:00:00Z</time>
      </trkpt>
      <trkpt lat="64.175963" lon="19.710743">
        <ele>174.909</ele>
        <time>1970-01-01T01:00:00Z</time>
      </trkpt>
      <trkpt lat="64.17603" lon="19.710579">
        <ele>174.909</ele>
        <time>1970-01-01T01:00:00Z</time>
      </trkpt>
      <trkpt lat="64.17608" lon="19.710367">
        <ele>174.909</ele>
        <time>1970-01-01T01:00:00Z</time>
      </trkpt>
      <trkpt lat="64.17613" lon="19.710167">
        <ele>174.909</ele>
        <time>1970-01-01T01:00:00Z</time>
      </trkpt>
      <trkpt lat="64.176199" lon="19.71003">
        <ele>174.909</ele>
        <time>1970-01-01T01:00:00Z</time>
      </trkpt>
      <trkpt lat="64.17628" lon="19.709913">
        <ele>174.909</ele>
        <time>1970-01-01T01:00:00Z</time>
      </trkpt>
      <trkpt lat="64.176339" lon="19.709734">
        <ele>175</ele>
        <time>1970-01-01T01:00:00Z</time>
      </trkpt>
      <trkpt lat="64.1764" lon="19.709541">
        <ele>174.909</ele>
        <time>1970-01-01T01:00:00Z</time>
      </trkpt>
      <trkpt lat="64.17646" lon="19.709389">
        <ele>174.818</ele>
        <time>1970-01-01T01:00:00Z</time>
      </trkpt>
      <trkpt lat="64.17654" lon="19.709215">
        <ele>174.818</ele>
        <time>1970-01-01T01:00:00Z</time>
      </trkpt>
      <trkpt lat="64.17659" lon="19.709038">
        <ele>174.818</ele>
        <time>1970-01-01T01:00:00Z</time>
      </trkpt>
      <trkpt lat="64.17667" lon="19.708876">
        <ele>174.727</ele>
        <time>1970-01-01T01:00:00Z</time>
      </trkpt>
      <trkpt lat="64.17671" lon="19.70869">
        <ele>174.636</ele>
        <time>1970-01-01T01:00:00Z</time>
      </trkpt>
      <trkpt lat="64.176779" lon="19.708548">
        <ele>174.636</ele>
        <time>1970-01-01T01:00:00Z</time>
      </trkpt>
      <trkpt lat="64.17684" lon="19.708384">
        <ele>174.545</ele>
        <time>1970-01-01T01:00:00Z</time>
      </trkpt>
      <trkpt lat="64.176925" lon="19.708231">
        <ele>174.455</ele>
        <time>1970-01-01T01:00:00Z</time>
      </trkpt>
      <trkpt lat="64.17699" lon="19.708065">
        <ele>174.364</ele>
        <time>1970-01-01T01:00:00Z</time>
      </trkpt>
      <trkpt lat="64.17707" lon="19.707933">
        <ele>174.273</ele>
        <time>1970-01-01T01:00:00Z</time>
      </trkpt>
      <trkpt lat="64.17713" lon="19.707773">
        <ele>174.273</ele>
        <time>1970-01-01T01:00:00Z</time>
      </trkpt>
      <trkpt lat="64.1772" lon="19.70759">
        <ele>174.273</ele>
        <time>1970-01-01T01:00:00Z</time>
      </trkpt>
      <trkpt lat="64.177269" lon="19.707434">
        <ele>174.182</ele>
        <time>1970-01-01T01:00:00Z</time>
      </trkpt>
      <trkpt lat="64.17735" lon="19.707281">
        <ele>174</ele>
        <time>1970-01-01T01:00:00Z</time>
      </trkpt>
      <trkpt lat="64.177409" lon="19.707088">
        <ele>174</ele>
        <time>1970-01-01T01:00:00Z</time>
      </trkpt>
      <trkpt lat="64.177414" lon="19.706871">
        <ele>174</ele>
        <time>1970-01-01T01:00:00Z</time>
      </trkpt>
      <trkpt lat="64.1774" lon="19.706654">
        <ele>173.909</ele>
        <time>1970-01-01T01:00:00Z</time>
      </trkpt>
      <trkpt lat="64.17744" lon="19.706453">
        <ele>173.909</ele>
        <time>1970-01-01T01:00:00Z</time>
      </trkpt>
      <trkpt lat="64.17747" lon="19.706253">
        <ele>173.909</ele>
        <time>1970-01-01T01:00:00Z</time>
      </trkpt>
      <trkpt lat="64.17757" lon="19.706306">
        <ele>173.909</ele>
        <time>1970-01-01T01:00:00Z</time>
      </trkpt>
      <trkpt lat="64.17766" lon="19.706322">
        <ele>173.909</ele>
        <time>1970-01-01T01:00:00Z</time>
      </trkpt>
      <trkpt lat="64.177605" lon="19.70649">
        <ele>173.909</ele>
        <time>1970-01-01T01:00:00Z</time>
      </trkpt>
      <trkpt lat="64.17758" lon="19.70669">
        <ele>173.909</ele>
        <time>1970-01-01T01:00:00Z</time>
      </trkpt>
      <trkpt lat="64.17749" lon="19.706762">
        <ele>173.909</ele>
        <time>1970-01-01T01:00:00Z</time>
      </trkpt>
      <trkpt lat="64.17742" lon="19.706903">
        <ele>174</ele>
        <time>1970-01-01T01:00:00Z</time>
      </trkpt>
      <trkpt lat="64.177505" lon="19.706793">
        <ele>174</ele>
        <time>1970-01-01T01:00:00Z</time>
      </trkpt>
      <trkpt lat="64.177589" lon="19.7067">
        <ele>174</ele>
        <time>1970-01-01T01:00:00Z</time>
      </trkpt>
      <trkpt lat="64.17767" lon="19.70659">
        <ele>174</ele>
        <time>1970-01-01T01:00:00Z</time>
      </trkpt>
      <trkpt lat="64.17773" lon="19.70637">
        <ele>174</ele>
        <time>1970-01-01T01:00:00Z</time>
      </trkpt>
      <trkpt lat="64.1778" lon="19.706217">
        <ele>173.909</ele>
        <time>1970-01-01T01:00:00Z</time>
      </trkpt>
      <trkpt lat="64.177895" lon="19.706078">
        <ele>173.818</ele>
        <time>1970-01-01T01:00:00Z</time>
      </trkpt>
      <trkpt lat="64.177955" lon="19.705885">
        <ele>173.727</ele>
        <time>1970-01-01T01:00:00Z</time>
      </trkpt>
      <trkpt lat="64.17802" lon="19.705715">
        <ele>173.636</ele>
        <time>1970-01-01T01:00:00Z</time>
      </trkpt>
      <trkpt lat="64.17806" lon="19.705517">
        <ele>173.636</ele>
        <time>1970-01-01T01:00:00Z</time>
      </trkpt>
      <trkpt lat="64.178129" lon="19.705357">
        <ele>173.636</ele>
        <time>1970-01-01T01:00:00Z</time>
      </trkpt>
      <trkpt lat="64.178214" lon="19.705233">
        <ele>173.636</ele>
        <time>1970-01-01T01:00:00Z</time>
      </trkpt>
      <trkpt lat="64.17829" lon="19.705114">
        <ele>173.636</ele>
        <time>1970-01-01T01:00:00Z</time>
      </trkpt>
      <trkpt lat="64.178389" lon="19.705069">
        <ele>173.636</ele>
        <time>1970-01-01T01:00:00Z</time>
      </trkpt>
      <trkpt lat="64.17849" lon="19.705078">
        <ele>173.636</ele>
        <time>1970-01-01T01:00:00Z</time>
      </trkpt>
      <trkpt lat="64.178566" lon="19.70524">
        <ele>173.636</ele>
        <time>1970-01-01T01:00:00Z</time>
      </trkpt>
      <trkpt lat="64.178479" lon="19.705135">
        <ele>173.727</ele>
        <time>1970-01-01T01:00:00Z</time>
      </trkpt>
      <trkpt lat="64.178479" lon="19.704876">
        <ele>173.909</ele>
        <time>1970-01-01T01:00:00Z</time>
      </trkpt>
      <trkpt lat="64.17845" lon="19.704678">
        <ele>174.091</ele>
        <time>1970-01-01T01:00:00Z</time>
      </trkpt>
      <trkpt lat="64.17852" lon="19.704512">
        <ele>174.273</ele>
        <time>1970-01-01T01:00:00Z</time>
      </trkpt>
      <trkpt lat="64.1786" lon="19.704365">
        <ele>174.364</ele>
        <time>1970-01-01T01:00:00Z</time>
      </trkpt>
      <trkpt lat="64.17865" lon="19.704206">
        <ele>174.455</ele>
        <time>1970-01-01T01:00:00Z</time>
      </trkpt>
      <trkpt lat="64.17872" lon="19.704058">
        <ele>174.545</ele>
        <time>1970-01-01T01:00:00Z</time>
      </trkpt>
      <trkpt lat="64.17879" lon="19.703897">
        <ele>174.727</ele>
        <time>1970-01-01T01:00:00Z</time>
      </trkpt>
      <trkpt lat="64.178855" lon="19.70374">
        <ele>174.909</ele>
        <time>1970-01-01T01:00:00Z</time>
      </trkpt>
      <trkpt lat="64.17891" lon="19.703539">
        <ele>175.091</ele>
        <time>1970-01-01T01:00:00Z</time>
      </trkpt>
      <trkpt lat="64.178979" lon="19.703377">
        <ele>175.273</ele>
        <time>1970-01-01T01:00:00Z</time>
      </trkpt>
      <trkpt lat="64.17903" lon="19.703184">
        <ele>175.455</ele>
        <time>1970-01-01T01:00:00Z</time>
      </trkpt>
      <trkpt lat="64.179114" lon="19.703066">
        <ele>175.636</ele>
        <time>1970-01-01T01:00:00Z</time>
      </trkpt>
      <trkpt lat="64.17918" lon="19.702915">
        <ele>175.818</ele>
        <time>1970-01-01T01:00:00Z</time>
      </trkpt>
      <trkpt lat="64.179244" lon="19.70277">
        <ele>176</ele>
        <time>1970-01-01T01:00:00Z</time>
      </trkpt>
      <trkpt lat="64.179306" lon="19.70258">
        <ele>176.182</ele>
        <time>1970-01-01T01:00:00Z</time>
      </trkpt>
      <trkpt lat="64.179379" lon="19.702444">
        <ele>176.364</ele>
        <time>1970-01-01T01:00:00Z</time>
      </trkpt>
      <trkpt lat="64.17944" lon="19.70229">
        <ele>176.545</ele>
        <time>1970-01-01T01:00:00Z</time>
      </trkpt>
      <trkpt lat="64.17946" lon="19.70208">
        <ele>176.636</ele>
        <time>1970-01-01T01:00:00Z</time>
      </trkpt>
      <trkpt lat="64.17952" lon="19.701933">
        <ele>176.727</ele>
        <time>1970-01-01T01:00:00Z</time>
      </trkpt>
      <trkpt lat="64.17961" lon="19.701864">
        <ele>176.818</ele>
        <time>1970-01-01T01:00:00Z</time>
      </trkpt>
      <trkpt lat="64.1797" lon="19.70179">
        <ele>176.909</ele>
        <time>1970-01-01T01:00:00Z</time>
      </trkpt>
      <trkpt lat="64.179794" lon="19.70185">
        <ele>177</ele>
        <time>1970-01-01T01:00:00Z</time>
      </trkpt>
      <trkpt lat="64.17988" lon="19.7019">
        <ele>177</ele>
        <time>1970-01-01T01:00:00Z</time>
      </trkpt>
      <trkpt lat="64.17997" lon="19.701872">
        <ele>177</ele>
        <time>1970-01-01T01:00:00Z</time>
      </trkpt>
      <trkpt lat="64.18007" lon="19.701906">
        <ele>177</ele>
        <time>1970-01-01T01:00:00Z</time>
      </trkpt>
      <trkpt lat="64.18015" lon="19.701996">
        <ele>177</ele>
        <time>1970-01-01T01:00:00Z</time>
      </trkpt>
      <trkpt lat="64.18025" lon="19.702103">
        <ele>177</ele>
        <time>1970-01-01T01:00:00Z</time>
      </trkpt>
      <trkpt lat="64.180319" lon="19.702225">
        <ele>177</ele>
        <time>1970-01-01T01:00:00Z</time>
      </trkpt>
      <trkpt lat="64.18039" lon="19.702377">
        <ele>177</ele>
        <time>1970-01-01T01:00:00Z</time>
      </trkpt>
      <trkpt lat="64.18046" lon="19.702526">
        <ele>177</ele>
        <time>1970-01-01T01:00:00Z</time>
      </trkpt>
      <trkpt lat="64.180533" lon="19.70267">
        <ele>177</ele>
        <time>1970-01-01T01:00:00Z</time>
      </trkpt>
      <trkpt lat="64.18062" lon="19.702776">
        <ele>177</ele>
        <time>1970-01-01T01:00:00Z</time>
      </trkpt>
      <trkpt lat="64.180695" lon="19.702917">
        <ele>177</ele>
        <time>1970-01-01T01:00:00Z</time>
      </trkpt>
      <trkpt lat="64.18076" lon="19.703074">
        <ele>177</ele>
        <time>1970-01-01T01:00:00Z</time>
      </trkpt>
      <trkpt lat="64.180824" lon="19.70324">
        <ele>176.909</ele>
        <time>1970-01-01T01:00:00Z</time>
      </trkpt>
      <trkpt lat="64.180885" lon="19.703405">
        <ele>176.818</ele>
        <time>1970-01-01T01:00:00Z</time>
      </trkpt>
      <trkpt lat="64.180954" lon="19.703575">
        <ele>176.727</ele>
        <time>1970-01-01T01:00:00Z</time>
      </trkpt>
      <trkpt lat="64.181015" lon="19.703741">
        <ele>176.636</ele>
        <time>1970-01-01T01:00:00Z</time>
      </trkpt>
      <trkpt lat="64.18109" lon="19.703905">
        <ele>176.545</ele>
        <time>1970-01-01T01:00:00Z</time>
      </trkpt>
      <trkpt lat="64.18114" lon="19.704105">
        <ele>176.455</ele>
        <time>1970-01-01T01:00:00Z</time>
      </trkpt>
      <trkpt lat="64.1812" lon="19.7043">
        <ele>176.364</ele>
        <time>1970-01-01T01:00:00Z</time>
      </trkpt>
      <trkpt lat="64.18125" lon="19.704506">
        <ele>176.364</ele>
        <time>1970-01-01T01:00:00Z</time>
      </trkpt>
      <trkpt lat="64.18132" lon="19.704668">
        <ele>176.364</ele>
        <time>1970-01-01T01:00:00Z</time>
      </trkpt>
      <trkpt lat="64.181389" lon="19.704805">
        <ele>176.364</ele>
        <time>1970-01-01T01:00:00Z</time>
      </trkpt>
      <trkpt lat="64.181439" lon="19.704992">
        <ele>176.364</ele>
        <time>1970-01-01T01:00:00Z</time>
      </trkpt>
      <trkpt lat="64.18151" lon="19.705135">
        <ele>176.455</ele>
        <time>1970-01-01T01:00:00Z</time>
      </trkpt>
      <trkpt lat="64.18158" lon="19.705297">
        <ele>176.636</ele>
        <time>1970-01-01T01:00:00Z</time>
      </trkpt>
      <trkpt lat="64.181619" lon="19.705511">
        <ele>176.818</ele>
        <time>1970-01-01T01:00:00Z</time>
      </trkpt>
      <trkpt lat="64.181656" lon="19.705715">
        <ele>177</ele>
        <time>1970-01-01T01:00:00Z</time>
      </trkpt>
      <trkpt lat="64.18172" lon="19.705906">
        <ele>177.273</ele>
        <time>1970-01-01T01:00:00Z</time>
      </trkpt>
      <trkpt lat="64.18178" lon="19.706078">
        <ele>177.545</ele>
        <time>1970-01-01T01:00:00Z</time>
      </trkpt>
      <trkpt lat="64.181839" lon="19.706274">
        <ele>177.818</ele>
        <time>1970-01-01T01:00:00Z</time>
      </trkpt>
      <trkpt lat="64.181889" lon="19.706474">
        <ele>178</ele>
        <time>1970-01-01T01:00:00Z</time>
      </trkpt>
      <trkpt lat="64.18195" lon="19.706648">
        <ele>178.182</ele>
        <time>1970-01-01T01:00:00Z</time>
      </trkpt>
      <trkpt lat="64.18201" lon="19.706831">
        <ele>178.455</ele>
        <time>1970-01-01T01:00:00Z</time>
      </trkpt>
      <trkpt lat="64.182045" lon="19.707043">
        <ele>178.727</ele>
        <time>1970-01-01T01:00:00Z</time>
      </trkpt>
      <trkpt lat="64.18209" lon="19.707258">
        <ele>179</ele>
        <time>1970-01-01T01:00:00Z</time>
      </trkpt>
      <trkpt lat="64.182143" lon="19.707441">
        <ele>179.182</ele>
        <time>1970-01-01T01:00:00Z</time>
      </trkpt>
      <trkpt lat="64.182199" lon="19.707615">
        <ele>179.364</ele>
        <time>1970-01-01T01:00:00Z</time>
      </trkpt>
      <trkpt lat="64.18221" lon="19.70782">
        <ele>179.545</ele>
        <time>1970-01-01T01:00:00Z</time>
      </trkpt>
      <trkpt lat="64.18213" lon="19.707941">
        <ele>179.636</ele>
        <time>1970-01-01T01:00:00Z</time>
      </trkpt>
      <trkpt lat="64.182045" lon="19.708067">
        <ele>179.727</ele>
        <time>1970-01-01T01:00:00Z</time>
      </trkpt>
      <trkpt lat="64.181979" lon="19.708216">
        <ele>179.818</ele>
        <time>1970-01-01T01:00:00Z</time>
      </trkpt>
      <trkpt lat="64.181929" lon="19.708408">
        <ele>179.909</ele>
        <time>1970-01-01T01:00:00Z</time>
      </trkpt>
      <trkpt lat="64.18185" lon="19.708563">
        <ele>180</ele>
        <time>1970-01-01T01:00:00Z</time>
      </trkpt>
      <trkpt lat="64.18178" lon="19.70869">
        <ele>180.091</ele>
        <time>1970-01-01T01:00:00Z</time>
      </trkpt>
      <trkpt lat="64.181693" lon="19.708828">
        <ele>180.182</ele>
        <time>1970-01-01T01:00:00Z</time>
      </trkpt>
      <trkpt lat="64.181619" lon="19.708973">
        <ele>180.273</ele>
        <time>1970-01-01T01:00:00Z</time>
      </trkpt>
      <trkpt lat="64.18156" lon="19.709124">
        <ele>180.364</ele>
        <time>1970-01-01T01:00:00Z</time>
      </trkpt>
      <trkpt lat="64.181479" lon="19.709286">
        <ele>180.455</ele>
        <time>1970-01-01T01:00:00Z</time>
      </trkpt>
      <trkpt lat="64.181404" lon="19.70945">
        <ele>180.545</ele>
        <time>1970-01-01T01:00:00Z</time>
      </trkpt>
      <trkpt lat="64.18131" lon="19.709595">
        <ele>180.636</ele>
        <time>1970-01-01T01:00:00Z</time>
      </trkpt>
      <trkpt lat="64.181244" lon="19.70975">
        <ele>180.727</ele>
        <time>1970-01-01T01:00:00Z</time>
      </trkpt>
      <trkpt lat="64.181169" lon="19.70988">
        <ele>180.818</ele>
        <time>1970-01-01T01:00:00Z</time>
      </trkpt>
      <trkpt lat="64.18109" lon="19.71002">
        <ele>180.909</ele>
        <time>1970-01-01T01:00:00Z</time>
      </trkpt>
      <trkpt lat="64.181015" lon="19.710154">
        <ele>181.091</ele>
        <time>1970-01-01T01:00:00Z</time>
      </trkpt>
      <trkpt lat="64.180949" lon="19.710289">
        <ele>181.182</ele>
        <time>1970-01-01T01:00:00Z</time>
      </trkpt>
      <trkpt lat="64.18087" lon="19.710445">
        <ele>181.273</ele>
        <time>1970-01-01T01:00:00Z</time>
      </trkpt>
      <trkpt lat="64.18079" lon="19.710606">
        <ele>181.273</ele>
        <time>1970-01-01T01:00:00Z</time>
      </trkpt>
      <trkpt lat="64.18073" lon="19.71077">
        <ele>181.273</ele>
        <time>1970-01-01T01:00:00Z</time>
      </trkpt>
      <trkpt lat="64.18065" lon="19.710909">
        <ele>181.364</ele>
        <time>1970-01-01T01:00:00Z</time>
      </trkpt>
      <trkpt lat="64.18058" lon="19.71106">
        <ele>181.455</ele>
        <time>1970-01-01T01:00:00Z</time>
      </trkpt>
      <trkpt lat="64.180499" lon="19.711191">
        <ele>181.545</ele>
        <time>1970-01-01T01:00:00Z</time>
      </trkpt>
      <trkpt lat="64.180409" lon="19.711287">
        <ele>181.636</ele>
        <time>1970-01-01T01:00:00Z</time>
      </trkpt>
      <trkpt lat="64.18035" lon="19.711445">
        <ele>181.636</ele>
        <time>1970-01-01T01:00:00Z</time>
      </trkpt>
      <trkpt lat="64.18029" lon="19.711643">
        <ele>181.636</ele>
        <time>1970-01-01T01:00:00Z</time>
      </trkpt>
      <trkpt lat="64.180269" lon="19.711876">
        <ele>181.545</ele>
        <time>1970-01-01T01:00:00Z</time>
      </trkpt>
      <trkpt lat="64.18025" lon="19.712097">
        <ele>181.455</ele>
        <time>1970-01-01T01:00:00Z</time>
      </trkpt>
      <trkpt lat="64.1802" lon="19.712255">
        <ele>181.364</ele>
        <time>1970-01-01T01:00:00Z</time>
      </trkpt>
      <trkpt lat="64.18012" lon="19.712402">
        <ele>181.364</ele>
        <time>1970-01-01T01:00:00Z</time>
      </trkpt>
      <trkpt lat="64.180049" lon="19.712542">
        <ele>181.364</ele>
        <time>1970-01-01T01:00:00Z</time>
      </trkpt>
      <trkpt lat="64.179985" lon="19.712675">
        <ele>181.182</ele>
        <time>1970-01-01T01:00:00Z</time>
      </trkpt>
      <trkpt lat="64.179919" lon="19.712818">
        <ele>181</ele>
        <time>1970-01-01T01:00:00Z</time>
      </trkpt>
      <trkpt lat="64.179829" lon="19.712873">
        <ele>180.727</ele>
        <time>1970-01-01T01:00:00Z</time>
      </trkpt>
      <trkpt lat="64.17973" lon="19.712984">
        <ele>180.455</ele>
        <time>1970-01-01T01:00:00Z</time>
      </trkpt>
      <trkpt lat="64.179649" lon="19.713123">
        <ele>180.182</ele>
        <time>1970-01-01T01:00:00Z</time>
      </trkpt>
      <trkpt lat="64.179559" lon="19.713198">
        <ele>179.909</ele>
        <time>1970-01-01T01:00:00Z</time>
      </trkpt>
      <trkpt lat="64.179474" lon="19.713291">
        <ele>179.636</ele>
        <time>1970-01-01T01:00:00Z</time>
      </trkpt>
      <trkpt lat="64.179405" lon="19.713436">
        <ele>179.364</ele>
        <time>1970-01-01T01:00:00Z</time>
      </trkpt>
      <trkpt lat="64.179329" lon="19.7136">
        <ele>179.2</ele>
        <time>1970-01-01T01:00:00Z</time>
      </trkpt>
      <trkpt lat="64.17926" lon="19.713755">
        <ele>179</ele>
        <time>1970-01-01T01:00:00Z</time>
      </trkpt>
      <trkpt lat="64.179199" lon="19.7139">
        <ele>178.75</ele>
        <time>1970-01-01T01:00:00Z</time>
      </trkpt>
      <trkpt lat="64.17913" lon="19.714052">
        <ele>178.571</ele>
        <time>1970-01-01T01:00:00Z</time>
      </trkpt>
      <trkpt lat="64.179159" lon="19.714102">
        <ele>178.333</ele>
        <time>1970-01-01T01:00:00Z</time>
      </trkpt>
    </trkseg>
  </trk>
</gpx>